Tracking 20942 objects as of 14-Jul-2020
HD Live streaming from Space Station
objects crossing your sky now

COSMOS 2192

Track COSMOS 2192 now!
10-day predictions
COSMOS 2192 is classified as:


NORAD ID: 21981
Int'l Code: 1992-030F
Perigee: 1,478.7 km
Apogee: 1,492.6 km
Inclination: 74.0 °
Period: 115.5 minutes
Semi major axis: 7856 km
RCS: 0.6788 m2 (medium)
Launch date: June 3, 1992
Source: Commonwealth of Independent States (former USSR) (CIS)
Launch site: PLESETSK MISSILE AND SPACE COMPLEX (PKMTR)
aabbcc
Your satellite tracking list
Your tracking list is empty




NASA's NSSDC Master Catalog

Two Line Element Set (TLE):
1 21981U 92030F   20195.79998873 -.00000019 +00000-0 -21241-4 0  9998
2 21981 074.0027 012.3503 0008893 357.8512 014.8904 12.46655040279564
Source of the keplerian elements: AFSPC